Wind_Speed
38 39 40 39 36 35 35 32 30 29 29 28 28 28 27 27 26 28 31 31 32 31 32 35 35 35 40 41 41 45 42 43 45 42 41 35 33 29 37 32 29 31 31
35 35 36 35 34 35 34 32 30 29 28 27 27 27 28 28 28 30 29 30 30 31 32 34 36 35 35 34 38 36 40 38 41 41 39 41 37 38 31 28 26 32 32
32 31 31 31 31 31 31 31 30 29 30 28 28 29 28 27 27 28 30 29 30 30 30 34 32 28 31 32 32 33 31 34 36 38 37 40 36 31 29 27 27 30 30
26 27 28 27 28 28 28 28 29 29 28 28 27 27 27 27 27 27 27 29 29 32 31 32 31 32 34 35 33 32 29 30 31 32 34 32 30 29 27 26 29 28 32
22 22 23 23 25 26 27 27 26 26 25 25 25 25 26 26 27 27 27 29 31 31 33 34 34 33 32 31 31 32 32 32 30 29 30 33 34 30 29 25 25 26 28
18 18 19 21 21 20 20 19 19 19 19 19 19 19 20 20 21 24 26 28 29 31 31 30 31 32 32 31 31 30 31 29 27 28 26 27 30 26 22 18 19 28 32
15 16 16 16 16 17 17 17 17 17 17 17 17 17 18 19 20 21 23 25 25 25 26 26 25 23 22 22 21 22 24 24 25 23 23 24 25 25 20 21 26 28 31
18 17 17 18 18 18 19 19 18 18 18 18 17 17 17 18 20 22 23 22 21 22 21 20 20 20 21 22 23 24 25 24 23 20 20 21 23 24 27 23 24 27 28
20 19 19 19 19 19 18 18 18 17 17 17 17 18 19 20 20 22 22 19 17 17 16 17 16 18 19 22 22 23 21 20 19 18 19 20 22 25 22 23 26 26 30
20 19 20 21 21 21 20 19 19 17 16 16 16 16 16 17 17 18 18 17 17 15 14 14 16 15 18 20 19 18 16 13 16 16 16 18 19 20 21 24 25 26 28
23 24 25 25 24 22 20 18 15 13 12 12 12 12 11 11 11 12 12 11 12 11 11 12 14 15 15 17 15 13 12 11 12 15 17 18 19 21 23 23 24 27 31
27 26 26 25 23 20 17 15 14 12 11 10 8 7 7 6 8 10 11 11 11 11 12 11 11 13 13 14 12 10 10 10 11 14 16 19 20 20 20 19 26 31 32
27 26 25 23 21 18 16 14 13 10 8 6 7 7 7 8 10 10 11 11 11 11 11 11 11 12 13 12 9 9 10 13 13 15 17 19 20 19 20 24 25 27 31
27 25 24 22 21 20 17 14 11 9 7 6 5 6 6 5 6 6 7 8 9 9 9 9 10 11 10 9 8 8 10 13 16 17 19 21 22 23 24 26 27 29 34
27 26 26 24 22 21 19 17 14 10 7 5 4 4 4 3 4 4 4 5 5 6 8 9 9 9 8 7 7 9 9 10 13 15 17 20 23 24 26 28 31 31 33
28 28 27 26 25 23 19 16 12 9 8 7 8 6 4 3 2 3 5 6 8 9 10 10 11 12 12 13 13 13 12 11 13 15 17 19 22 23 25 26 27 30 31
29 29 28 26 24 21 18 15 14 13 11 10 8 6 4 2 1 4 7 8 8 9 9 11 11 12 13 14 15 15 16 16 15 17 18 19 21 23 25 25 26 28 30
28 27 26 24 22 19 17 16 13 11 11 10 9 6 4 2 3 4 6 10 11 12 12 13 14 14 15 16 18 20 21 20 18 19 19 20 21 22 23 24 25 25 27
26 24 23 22 20 19 18 16 15 14 12 10 8 5 2 1 2 5 8 9 12 14 15 16 16 17 19 20 21 21 21 22 21 21 21 21 21 22 23 24 24 24 25
23 22 22 22 20 19 18 16 15 14 13 10 7 4 2 4 6 7 10 13 15 17 19 20 21 22 23 24 25 25 25 24 24 24 24 24 23 22 25 27 28 29 29
22 22 21 21 20 19 18 17 15 14 11 8 5 4 5 8 10 12 15 17 19 21 22 23 23 24 25 25 26 26 26 26 26 27 28 29 31 32 29 28 27 27 28
20 20 20 20 20 20 18 15 13 10 7 5 5 7 10 12 14 17 19 21 22 23 24 24 23 23 22 23 24 25 26 26 26 27 28 28 29 29 30 32 34 35 36
20 20 20 20 19 17 15 13 11 8 8 9 10 12 14 16 18 19 20 20 21 21 21 20 20 19 20 20 21 23 24 24 25 26 27 28 28 28 29 30 29 29 29
18 18 17 17 15 14 12 10 12 12 12 13 15 17 19 20 20 20 19 18 18 17 17 16 17 17 17 18 20 21 22 23 24 25 26 27 27 25 25 26 26 26 25
14 14 14 13 14 16 19 20 19 18 19 20 21 21 22 22 21 21 20 18 16 15 15 16 17 19 20 21 21 21 22 24 24 25 26 26 26 24 23 24 23 22 22
19 20 20 20 20 20 20 20 22 24 25 23 23 23 23 23 22 21 19 18 17 18 18 18 19 21 23 23 24 24 24 24 24 25 25 24 24 23 22 21 20 21 21
Wind_Direction
240 242 245 247 249 251 255 259 262 264 265 267 269 272 274 273 272 272 272 276 276 279 281 281 281 285 285 287 291 284 286 285 285 274 283 283 269 267 262 248 241 238 240
241 244 247 250 250 251 254 257 259 262 264 265 268 271 270 270 272 272 275 276 277 278 281 283 285 288 292 293 290 297 295 294 294 287 290 287 268 262 253 238 234 235 240
237 240 241 243 244 246 249 254 259 262 263 264 263 264 268 270 271 269 271 273 273 277 283 280 284 286 287 287 289 292 297 295 294 291 291 287 272 256 245 232 233 237 233
230 234 237 239 241 244 248 251 256 259 262 264 263 263 263 262 261 265 265 269 270 275 278 276 277 281 284 288 288 291 291 293 296 299 290 277 261 259 242 232 227 241 235
228 228 231 233 236 240 245 249 253 256 258 260 260 260 259 259 258 259 260 263 271 276 279 280 282 283 283 284 289 289 290 293 296 295 287 273 259 245 239 237 238 243 241
213 217 221 226 231 235 240 244 248 252 254 255 256 257 258 259 260 264 267 270 274 279 281 282 282 283 281 278 279 285 287 290 288 286 284 273 262 258 252 247 240 250 244
214 218 222 226 230 235 238 240 242 244 247 250 252 254 257 262 266 270 275 276 278 281 284 287 291 297 300 298 294 292 291 289 288 290 283 274 264 261 240 229 239 250 247
221 225 227 230 231 231 231 232 234 236 241 246 252 259 266 269 272 273 276 280 285 289 294 301 306 309 305 306 309 301 299 293 290 293 290 279 266 241 241 252 247 253 245
222 223 225 229 230 230 231 232 235 239 245 252 258 262 266 270 274 278 279 282 284 288 294 296 302 304 304 306 306 302 302 300 295 291 281 271 263 257 254 238 250 246 242
217 225 232 234 235 235 235 236 240 246 254 260 262 267 273 279 287 293 296 296 295 293 292 294 296 306 310 313 315 315 312 310 303 296 288 278 264 253 240 250 251 251 252
224 233 236 237 235 236 236 238 241 245 248 254 260 266 270 279 291 295 297 290 286 280 278 285 296 300 302 303 314 313 309 301 297 291 284 274 266 252 251 256 269 270 261
230 234 233 230 230 229 228 228 226 228 228 235 245 258 270 287 297 298 295 291 290 290 287 291 299 309 317 322 312 310 296 283 279 278 276 274 270 265 263 261 262 264 263
233 231 227 222 218 215 213 215 212 208 210 227 249 265 282 300 306 308 313 314 306 300 303 306 311 314 314 311 320 320 301 296 289 286 286 282 279 279 274 272 272 271 268
227 224 220 214 208 203 200 197 199 201 212 228 257 284 300 312 313 315 321 320 323 324 321 315 314 313 314 314 314 304 297 297 296 293 291 289 284 279 280 284 285 285 283
221 216 210 203 196 194 192 192 196 201 201 207 234 253 263 281 296 303 318 329 330 343 342 339 338 335 329 318 312 305 299 302 304 307 302 299 295 291 290 291 291 290 286
213 206 201 197 193 194 194 193 197 198 210 217 223 222 227 242 281 325 338 342 345 350 348 349 349 344 339 337 335 331 324 315 311 307 305 306 305 305 304 303 301 300 298
205 201 198 196 195 195 193 195 198 193 199 202 201 199 192 187 81 349 347 343 343 341 342 340 342 339 333 332 327 324 324 325 319 309 306 304 304 304 305 304 303 303 302
197 199 198 196 195 195 195 196 198 198 201 193 187 169 150 110 16 351 336 331 336 339 343 344 343 338 332 328 328 327 327 325 318 314 312 310 305 303 300 300 300 301 302
195 196 196 195 194 194 194 192 188 187 180 171 165 170 168 216 318 323 322 323 327 328 329 327 326 325 323 322 320 317 315 312 311 310 310 309 306 303 300 301 299 298 299
194 197 198 197 194 190 188 187 181 175 175 175 172 173 223 293 323 320 313 314 317 317 317 317 317 316 315 313 312 310 309 306 303 300 298 297 295 290 293 298 296 295 295
198 199 197 192 187 184 183 178 176 177 177 179 195 232 272 292 300 306 312 313 313 312 312 310 311 311 310 309 307 306 304 304 303 300 297 292 287 283 281 281 281 278 278
192 194 189 184 181 179 178 178 181 189 199 216 259 283 293 299 306 308 310 311 313 312 311 313 316 317 317 316 315 314 314 312 309 306 304 301 298 296 292 288 285 285 286
185 182 181 180 180 182 186 192 200 214 237 253 272 283 292 298 300 303 307 308 309 310 311 313 315 318 320 319 318 318 318 316 313 311 308 307 306 303 300 297 295 290 287
177 179 182 187 191 197 205 217 228 241 258 274 283 284 289 292 295 299 301 302 303 304 306 309 313 316 317 318 320 320 319 319 317 314 312 311 310 310 306 304 302 298 295
182 191 203 216 229 235 239 244 251 261 266 271 275 279 284 289 292 293 293 291 291 292 295 299 304 307 309 312 312 314 314 315 314 313 313 312 310 309 307 304 305 302 299
215 219 222 226 234 242 253 261 263 264 268 271 274 280 282 283 283 283 281 281 283 286 290 295 298 300 302 304 306 308 308 309 309 309 309 309 308 306 303 302 305 304 302
Height
1480 1486 1490 1494 1498 1501 1504 1507 1510 1512 1514 1515 1518 1519 1521 1523 1525 1525 1525 1525 1525 1525 1525 1523 1522 1522 1520 1518 1516 1514 1513 1512 1509 1504 1504 1506 1504 1504 1504 1509 1508 1515 1520
1475 1478 1483 1487 1490 1493 1496 1500 1502 1505 1507 1508 1511 1512 1513 1515 1517 1516 1517 1518 1517 1516 1517 1516 1514 1514 1512 1511 1508 1508 1508 1506 1504 1499 1498 1496 1496 1495 1497 1498 1501 1504 1514
1467 1471 1475 1478 1481 1485 1489 1493 1496 1498 1499 1501 1503 1503 1505 1507 1508 1509 1509 1509 1509 1508 1509 1508 1507 1505 1504 1504 1502 1501 1500 1497 1495 1493 1491 1491 1489 1490 1490 1491 1497 1500 1501
1461 1464 1468 1472 1476 1479 1482 1485 1488 1489 1490 1493 1495 1496 1497 1498 1499 1500 1500 1502 1501 1501 1501 1501 1499 1497 1496 1495 1494 1491 1490 1489 1487 1486 1484 1483 1485 1485 1484 1486 1490 1494 1496
1455 1458 1462 1466 1469 1472 1475 1477 1479 1481 1483 1485 1487 1488 1489 1489 1490 1491 1492 1493 1494 1493 1493 1491 1490 1488 1487 1486 1486 1483 1481 1480 1478 1477 1477 1477 1477 1477 1478 1481 1486 1485 1487
1451 1454 1457 1461 1464 1467 1469 1471 1473 1475 1477 1478 1479 1481 1482 1483 1483 1484 1485 1485 1485 1485 1485 1483 1482 1480 1478 1477 1477 1476 1474 1472 1469 1470 1469 1469 1471 1474 1476 1478 1480 1478 1483
1448 1451 1454 1457 1459 1462 1464 1466 1467 1469 1471 1473 1474 1476 1476 1476 1477 1477 1477 1478 1478 1477 1476 1475 1474 1473 1471 1470 1468 1468 1469 1466 1464 1464 1463 1465 1465 1466 1468 1469 1472 1472 1472
1444 1447 1450 1452 1455 1456 1458 1460 1462 1464 1465 1467 1469 1471 1472 1471 1471 1470 1470 1470 1471 1470 1469 1470 1468 1469 1468 1466 1466 1465 1463 1461 1460 1459 1459 1459 1460 1461 1462 1466 1467 1466 1467
1441 1444 1446 1447 1449 1451 1453 1455 1456 1459 1460 1462 1464 1465 1465 1466 1465 1465 1466 1464 1465 1463 1463 1463 1461 1461 1460 1459 1458 1458 1456 1456 1454 1453 1454 1455 1455 1457 1458 1459 1460 1461 1459
1435 1438 1441 1443 1445 1447 1449 1450 1452 1454 1455 1457 1459 1460 1460 1461 1460 1460 1460 1459 1459 1460 1458 1456 1455 1454 1454 1454 1453 1452 1451 1451 1454 1454 1453 1454 1455 1456 1456 1458 1457 1456 1456
1430 1432 1435 1437 1439 1441 1442 1445 1447 1450 1450 1454 1455 1456 1456 1456 1456 1455 1455 1454 1455 1453 1454 1451 1450 1449 1448 1448 1446 1443 1447 1449 1448 1450 1451 1452 1452 1453 1454 1456 1456 1457 1457
1423 1426 1428 1430 1432 1435 1438 1440 1444 1445 1446 1449 1450 1451 1452 1451 1451 1451 1450 1451 1451 1451 1449 1447 1444 1445 1444 1443 1444 1443 1444 1442 1441 1442 1443 1445 1447 1447 1448 1449 1450 1450 1450
1417 1419 1422 1425 1427 1430 1433 1437 1440 1442 1444 1445 1447 1447 1447 1446 1447 1448 1449 1449 1449 1450 1447 1444 1442 1442 1442 1441 1439 1439 1441 1443 1442 1440 1441 1442 1442 1444 1444 1442 1441 1441 1440
1410 1412 1417 1420 1422 1426 1429 1433 1437 1438 1440 1441 1444 1444 1444 1443 1447 1448 1446 1447 1448 1446 1444 1441 1438 1437 1437 1438 1437 1437 1437 1439 1441 1437 1439 1440 1440 1438 1438 1438 1435 1435 1432
1404 1407 1412 1415 1417 1420 1425 1427 1430 1433 1435 1436 1438 1440 1441 1442 1444 1445 1443 1444 1446 1443 1441 1439 1437 1436 1436 1436 1435 1436 1434 1432 1434 1431 1430 1434 1435 1435 1434 1434 1432 1430 1425
1398 1402 1407 1410 1412 1418 1420 1422 1425 1429 1431 1431 1437 1436 1438 1440 1442 1442 1442 1442 1441 1438 1435 1433 1432 1433 1434 1434 1434 1433 1430 1427 1429 1428 1428 1427 1428 1427 1426 1425 1423 1422 1418
1393 1397 1401 1405 1410 1413 1416 1419 1421 1425 1426 1430 1430 1433 1435 1437 1435 1440 1441 1440 1438 1435 1431 1431 1428 1427 1428 1426 1427 1426 1425 1423 1424 1423 1422 1421 1421 1422 1421 1420 1418 1415 1412
1389 1393 1398 1403 1407 1410 1413 1415 1417 1421 1425 1426 1430 1430 1430 1432 1436 1436 1438 1439 1437 1435 1432 1430 1428 1427 1426 1425 1424 1422 1419 1418 1419 1419 1418 1416 1416 1416 1415 1413 1411 1409 1407
1387 1391 1396 1400 1403 1406 1409 1412 1414 1417 1421 1425 1428 1429 1429 1429 1428 1431 1434 1434 1434 1434 1431 1429 1426 1424 1423 1421 1420 1419 1416 1415 1414 1413 1412 1411 1410 1410 1408 1406 1404 1402 1401
1385 1390 1394 1398 1401 1403 1406 1409 1413 1416 1420 1422 1423 1425 1426 1428 1426 1426 1429 1431 1429 1428 1427 1425 1423 1420 1417 1415 1413 1413 1411 1411 1409 1407 1407 1407 1405 1404 1403 1400 1397 1394 1394
1383 1389 1392 1397 1399 1402 1406 1408 1412 1415 1417 1419 1420 1421 1422 1422 1422 1423 1423 1423 1423 1421 1420 1419 1416 1413 1412 1410 1408 1406 1404 1403 1401 1399 1399 1398 1398 1396 1394 1392 1390 1389 1386
1381 1387 1392 1394 1397 1400 1403 1406 1410 1414 1415 1413 1415 1416 1418 1417 1417 1417 1415 1415 1413 1414 1412 1410 1409 1407 1405 1403 1401 1399 1396 1394 1393 1392 1391 1389 1388 1386 1384 1381 1379 1378 1377
1379 1384 1389 1393 1396 1398 1400 1403 1405 1407 1408 1409 1411 1412 1413 1412 1411 1409 1408 1407 1406 1407 1405 1403 1401 1401 1398 1397 1394 1392 1389 1388 1387 1385 1382 1380 1378 1377 1374 1373 1369 1366 1366
1379 1383 1388 1391 1393 1395 1397 1399 1401 1402 1402 1403 1405 1407 1407 1406 1404 1402 1400 1400 1400 1398 1398 1397 1396 1395 1394 1392 1389 1387 1385 1383 1381 1378 1377 1374 1371 1370 1367 1366 1362 1363 1359
1378 1382 1385 1387 1389 1391 1393 1395 1396 1396 1397 1398 1399 1400 1400 1399 1398 1396 1394 1393 1392 1391 1391 1390 1389 1389 1388 1386 1383 1380 1378 1377 1375 1372 1369 1367 1365 1361 1361 1359 1356 1353 1353
1374 1377 1379 1382 1384 1386 1387 1388 1389 1391 1392 1392 1392 1392 1391 1390 1389 1389 1388 1387 1386 1386 1385 1384 1383 1382 1381 1379 1377 1375 1373 1371 1369 1367 1365 1362 1358 1356 1354 1353 1350 1349 1347